This is the latest recevied weather packets stored in our database for station/object KY0TEQ-13. If no packets are shown the sender has not sent any weather packets the latest 10 day(s).
| Time | Temp. | Humidity | Pressure | Rain* | Wind** | Luminosity | Snow |
|---|---|---|---|---|---|---|---|
| 1777754525 | 15.56° C | 18% | 1307.4 hPa | 0 mm | - | 708 W/m² | - |
| 1777754222 | 16.67° C | 17% | 1307.6 hPa | 0 mm | - | 711 W/m² | - |
| 1777753920 | 16.67° C | 17% | 1307.6 hPa | 0 mm | - | 717 W/m² | - |
| 1777753614 | 15.56° C | 18% | 1307.6 hPa | 0 mm | - | 724 W/m² | - |
| 1777753307 | 15.56° C | 17% | 1307.8 hPa | 0 mm | - | 732 W/m² | - |
| 1777753003 | 15.56° C | 16% | 1307.6 hPa | 0 mm | - | 737 W/m² | - |
| 1777752694 | 15.56° C | 19% | 1307.7 hPa | 0 mm | - | 744 W/m² | - |
| 1777752390 | 15.56° C | 18% | 1307.8 hPa | 0 mm | - | 747 W/m² | - |
| 1777752087 | 16.67° C | 18% | 1307.9 hPa | 0 mm | - | 751 W/m² | - |
| 1777751786 | 15.56° C | 19% | 1307.9 hPa | 0 mm | - | 756 W/m² | - |
| 1777751481 | 16.11° C | 20% | 1307.9 hPa | 0 mm | - | 760 W/m² | - |
| 1777751178 | 14.44° C | 19% | 1307.9 hPa | 0 mm | - | 765 W/m² | - |
| 1777750874 | 15.56° C | 18% | 1308.2 hPa | 0 mm | - | 768 W/m² | - |
| 1777750571 | 15.56° C | 20% | 1308.2 hPa | 0 mm | - | 771 W/m² | - |
| 1777750269 | 15.56° C | 21% | 1308.3 hPa | 0 mm | - | 775 W/m² | - |
| 1777749964 | 15.56° C | 22% | 1308.3 hPa | 0 mm | - | 778 W/m² | - |
| 1777749662 | 15° C | 20% | 1308.2 hPa | 0 mm | - | 782 W/m² | - |
| 1777749358 | 15.56° C | 19% | 1308.5 hPa | 0 mm | - | 788 W/m² | - |
| 1777749055 | 15° C | 19% | 1308.6 hPa | 0 mm | - | 787 W/m² | - |
| 1777748753 | 13.89° C | 22% | 1308.5 hPa | 0 mm | - | 787 W/m² | - |
| 1777748450 | 14.44° C | 23% | 1308.5 hPa | 0 mm | - | 789 W/m² | - |
| 1777748144 | 14.44° C | 20% | 1308.6 hPa | 0 mm | - | 790 W/m² | - |
| 1777747842 | 14.44° C | 23% | 1308.9 hPa | 0 mm | - | 790 W/m² | - |
| 1777747538 | 13.89° C | 22% | 1309 hPa | 0 mm | - | 789 W/m² | - |
| 1777747234 | 15° C | 21% | 1308.8 hPa | 0 mm | - | 788 W/m² | - |
* Rain latest hour (hover to see other rain measurements)
** Current wind speed in m/s (hover to see current wind gust speed)